[[{"header":{"parameterUnit":"m.s-1","parameterCategory":1,"la1":30.2991,"la2":30.254,"lo1":-89.0895,"lo2":-89.0444,"dy":0.0017,"dx":0.0017,"nx":28,"ny":28,"refTime":"2024-10-18T21:00:00:Z","depth":0,"parameterNumber":2,"parameterNumberName":"U-component_of_WINDS"},"data":[0,0,0,0,0,0,0,0,0,0,0,0,0,0,0,0,0,0,0,0,0,0,0,0,0,0,0,0,0,0,0,0,0,0,0,0,0,0,0,0,0,0,0,0,0,0,0,0,0,0,0,0,0,0,0,0,0,0,-5.4186,-5.4187,0,-5.4233,-5.4233,-5.4234,-5.4104,-5.41,-5.4096,-5.4093,-5.4143,-5.4148,-5.4153,0,0,0,0,0,0,0,0,0,0,0,0,0,-5.399,-5.3994,-5.4186,-5.4187,-5.4187,-5.4233,-5.4233,-5.4234,-5.4105,-5.41,-5.4095,-5.4091,-5.4141,-5.4147,-5.4154,0,0,0,0,0,0,0,0,0,0,0,0,0,-5.406,-5.3996,-5.4186,-5.4129,-5.4124,-5.4232,-5.4233,-5.4234,-5.4106,-5.41,-5.4094,-5.4089,-5.414,-5.4147,-5.4154,-5.4322,0,0,-5.4178,-5.4181,0,0,0,0,0,0,0,0,-5.4056,-5.4067,-5.4136,-5.4133,-5.4128,-5.4156,-5.4182,-5.4264,-5.4108,-5.4113,-5.4093,-5.4086,-5.4153,-5.4159,-5.4181,-5.4324,-5.4326,-5.4178,-5.4183,-5.4186,-5.4188,0,0,0,0,0,0,0,-5.4051,-5.4065,-5.4205,-5.4138,-5.4132,-5.4102,-5.4105,-5.4197,-5.4166,-5.4112,-5.4103,-5.411,-5.4149,-5.4174,-5.4181,-5.4327,-5.4178,-5.4185,-5.419,-5.4193,-5.4613,-5.4619,0,0,0,0,0,0,-5.4054,-5.4061,-5.4203,-5.4206,-5.4076,-5.411,-5.4114,-5.4153,-5.4165,-5.4161,-5.4115,-5.4104,-5.4164,-5.4172,-5.4182,-5.4381,-5.4186,-5.4193,-5.4198,-5.4606,-5.4614,-5.4621,0,0,0,0,0,0,-5.405,-5.4067,-5.4201,-5.4131,-5.4146,-5.412,-5.4165,-5.4158,-5.4182,-5.4167,-5.4161,-5.4146,-5.4159,-5.4172,-5.4288,-5.4381,-5.4197,-5.4204,-5.4598,-5.4609,-5.4618,-5.4778,0,0,0,0,0,0,-5.4045,-5.4067,-5.4129,-5.4134,-5.415,-5.4306,-5.4171,-5.4163,-5.4195,-5.4181,-5.4194,-5.4191,-5.4156,-5.4278,-5.4296,-5.4388,-5.421,-5.459,-5.4603,-5.4615,-5.4764,-5.4792,-5.4816,0,0,0,0,0,-5.4038,-5.4172,-5.4133,-5.4151,-5.4227,-5.4311,-5.4321,-5.4277,-5.4203,-5.4266,-5.4257,-5.419,-5.4368,-5.4291,-5.431,-5.4406,-5.4584,-5.4599,-5.4614,-5.4753,-5.4787,-5.4815,0,0,0,0,0,0,-5.418,-5.4172,-5.4128,-5.4267,-5.4291,-5.4289,-5.4367,-5.4314,-5.436,-5.4344,-5.4289,-5.4293,-5.4421,-5.4425,-5.4339,-5.457,-5.4463,-5.4483,-5.4563,-5.4595,-5.462,-5.4617,-5.4216,0,0,0,0,0,-5.4227,-5.4295,-5.4285,-5.4409,-5.4423,-5.4394,-5.4429,-5.4393,-5.4415,-5.4425,-5.4424,-5.445,-5.4511,-5.4553,-5.4608,-5.4764,-5.4767,-5.484,-5.4866,-5.4887,-5.4905,-5.499,-5.5023,-5.467,-5.467,-5.467,0,0,-5.4326,-5.433,-5.4376,-5.4437,-5.4451,-5.4525,-5.4403,-5.4485,-5.4539,-5.4438,-5.4548,-5.4549,-5.4574,-5.4712,-5.4772,-5.4719,-5.5003,-5.4906,-5.4923,-5.4929,-5.5009,-5.5042,-5.5072,-5.468,-5.4678,-5.4677,0,0,-5.4543,-5.4552,-5.4657,-5.4674,-5.4697,-5.4677,-5.4703,-5.471,-5.4707,-5.4816,-5.4743,-5.4807,-5.4914,-5.4935,-5.496,-5.5189,-5.513,-5.5209,-5.5343,-5.5427,-5.5455,-5.5479,-5.5563,-5.5593,-5.5226,-5.5227,-5.5227,0,-5.4663,-5.4769,-5.4719,-5.4806,-5.4837,-5.4748,-5.4856,-5.4875,-5.4915,-5.4939,-5.4878,-5.5012,-5.5022,-5.5165,-5.5221,-5.5244,-5.5273,-5.5207,-5.5455,-5.5479,-5.5501,-5.558,-5.5611,-5.5236,-5.5235,-5.5234,-5.5233,0,-5.4916,-5.4991,-5.5074,-5.5115,-5.5154,-5.5252,-5.5218,-5.5264,-5.5226,-5.5213,-5.5328,-5.5338,-5.5395,-5.5426,-5.5389,-5.5565,-5.5531,-5.5464,-5.5356,-5.5545,-5.5619,-5.5648,-5.525,-5.5246,-5.5243,-5.5241,0,0,-5.5223,-5.5236,-5.5268,-5.5287,-5.5307,-5.5364,-5.5459,-5.5514,-5.5556,-5.5588,-5.5667,-5.576,-5.5699,-5.5727,-5.5692,-5.5766,-5.5949,-5.5689,-5.5689,-5.5739,-5.6146,-5.6198,-5.6233,-5.591,-5.5916,-5.592,-5.6145,0,-5.5438,-5.5599,-5.5558,-5.5718,-5.5788,-5.5707,-5.5789,-5.5812,-5.5803,-5.5862,-5.5852,-5.592,-5.5833,-5.585,-5.5919,-5.5912,-5.603,-5.5895,-5.5985,-5.5989,-5.5983,-5.6271,-5.6325,-5.6537,-5.6173,-5.6178,-5.6181,0,-5.571,-5.5753,-5.5921,-5.5932,-5.5959,-5.6034,-5.6083,-5.614,-5.6165,-5.6153,-5.6187,-5.6138,-5.6234,-5.6125,-5.6257,-5.6166,-5.6201,-5.6204,-5.6211,-5.6218,-5.6097,-5.6288,-5.6603,-5.6635,-5.6225,-5.6222,-5.6219,0,-5.592,-5.6019,-5.6132,-5.6151,-5.6166,-5.6221,-5.623,-5.6248,-5.6285,-5.6328,-5.6352,-5.6406,-5.6437,-5.6481,-5.6449,-5.6372,-5.6587,-5.6475,-5.6582,-5.6584,-5.6632,-5.6629,-5.6958,-5.6653,-5.6652,-5.6651,-5.6651,0,-5.6165,-5.6271,-5.6227,-5.6297,-5.6415,-5.6367,-5.6485,-5.6485,-5.6503,-5.6573,-5.6506,-5.6573,-5.6526,-5.6591,-5.6567,-5.6681,-5.6695,-5.669,-5.6683,-5.6697,-5.6698,-5.6719,-5.6704,-5.666,-5.6658,-5.6656,-5.6655,0,-5.6418,-5.6392,-5.6511,-5.6516,-5.652,-5.6607,-5.6612,-5.6678,-5.6665,-5.6755,-5.6773,-5.6753,-5.6826,-5.6798,-5.6875,-5.6859,-5.7006,-5.6979,-5.6998,-5.6991,-5.7101,-5.7092,-5.7456,-5.7502,-5.7165,-5.7169,-5.7171,0,-5.6577,-5.6657,-5.6671,-5.6713,-5.6727,-5.6795,-5.6832,-5.679,-5.6832,-5.6868,-5.6931,-5.6997,-5.7048,-5.7168,-5.7162,-5.7221,-5.7196,-5.7319,-5.7204,-5.7217,-5.72,-5.7196,-5.7205,-5.7343,-5.7346,-5.735,-5.7352,0,-5.6862,-5.6846,-5.6902,-5.6956,-5.7002,-5.7042,-5.7076,-5.7115,-5.7074,-5.7125,-5.7198,-5.7238,-5.7317,-5.7385,-5.7439,-5.745,-5.7396,-5.7389,-5.7417,-5.7433,-5.7441,-5.744,-5.7062,-5.738,-5.7378,-5.7375,-5.7374,-5.7373,-5.7074,-5.7142,-5.7164,-5.7229,-5.725,-5.7285,-5.7348,-5.7343,-5.7403,-5.7464,-5.7435,-5.7521,-5.7546,-5.7613,-5.7631,-5.7699,-5.7651,-5.7692,-5.7702,-5.7713,-5.7728,-5.743,-5.7709,-5.7708,-5.7707,-5.7706,-5.7706,0,-5.7357,-5.7367,-5.7428,-5.7478,-5.7531,-5.7474,-5.751,-5.7558,-5.7634,-5.7662,-5.7714,-5.78,-5.7866,-5.7865,-5.7927,-5.7982,-5.7959,-5.8,-5.7996,-5.8,-5.7767,-5.7737,-5.8017,-5.8017,-5.8017,-5.8017,-5.8017,-5.8017,-5.7511,-5.7624,-5.7611,-5.7735,-5.7744,-5.7827,-5.7853,-5.7885,-5.7907,-5.8006,-5.806,-5.8059,-5.8077,-5.814,-5.8199,-5.8197,-5.8224,-5.8275,-5.8264,-5.8047,-5.8016,-5.7986,-5.7958,-5.8281,-5.8281,-5.8492,-5.8494,-5.8495]},{"header":{"parameterUnit":"m.s-1","parameterCategory":1,"la1":30.2991,"la2":30.254,"lo1":-89.0895,"lo2":-89.0444,"dy":0.0017,"dx":0.0017,"nx":28,"ny":28,"refTime":"2024-10-18T21:00:00:Z","depth":0,"parameterNumber":3,"parameterNumberName":"V-component_of_WINDS"},"data":[0,0,0,0,0,0,0,0,0,0,0,0,0,0,0,0,0,0,0,0,0,0,0,0,0,0,0,0,0,0,0,0,0,0,0,0,0,0,0,0,0,0,0,0,0,0,0,0,0,0,0,0,0,0,0,0,0,0,-0.806,-0.806,0,-0.8046,-0.8046,-0.8045,-0.7984,-0.7982,-0.7981,-0.798,-0.7967,-0.7968,-0.7969,0,0,0,0,0,0,0,0,0,0,0,0,0,-0.8037,-0.8037,-0.806,-0.806,-0.806,-0.8046,-0.8046,-0.8045,-0.7984,-0.7982,-0.7981,-0.7979,-0.7967,-0.7968,-0.797,0,0,0,0,0,0,0,0,0,0,0,0,0,-0.8037,-0.8038,-0.806,-0.8028,-0.8025,-0.8046,-0.8046,-0.8045,-0.7984,-0.7982,-0.798,-0.7978,-0.7967,-0.7968,-0.797,-0.8022,0,0,-0.7974,-0.7975,0,0,0,0,0,0,0,0,-0.8037,-0.8038,-0.8033,-0.803,-0.8026,-0.8014,-0.8033,-0.8038,-0.7985,-0.8,-0.798,-0.7977,-0.7985,-0.7985,-0.7987,-0.8022,-0.8021,-0.7974,-0.7975,-0.7976,-0.7977,0,0,0,0,0,0,0,-0.8037,-0.8038,-0.8055,-0.8033,-0.8029,-0.8014,-0.8012,-0.8033,-0.8005,-0.7998,-0.7994,-0.7993,-0.7983,-0.7986,-0.7986,-0.8021,-0.7974,-0.7976,-0.7977,-0.7977,-0.8098,-0.81,0,0,0,0,0,0,-0.8042,-0.8039,-0.8055,-0.8054,-0.8027,-0.8016,-0.8014,-0.8021,-0.8004,-0.8,-0.7995,-0.799,-0.7984,-0.7985,-0.7986,-0.8046,-0.7976,-0.7977,-0.7978,-0.8095,-0.8098,-0.8101,0,0,0,0,0,0,-0.8041,-0.8044,-0.8056,-0.8045,-0.8046,-0.8019,-0.8027,-0.8021,-0.8024,-0.8001,-0.7996,-0.8003,-0.7982,-0.7983,-0.8013,-0.8045,-0.7978,-0.798,-0.8093,-0.8096,-0.8099,-0.8169,0,0,0,0,0,0,-0.8041,-0.8044,-0.8063,-0.8046,-0.8046,-0.8084,-0.8029,-0.8023,-0.8026,-0.802,-0.8008,-0.8004,-0.7981,-0.8011,-0.8015,-0.8046,-0.7981,-0.809,-0.8094,-0.8098,-0.8164,-0.8174,-0.8183,0,0,0,0,0,-0.804,-0.8084,-0.8065,-0.8067,-0.807,-0.8086,-0.8086,-0.8058,-0.8029,-0.8049,-0.8034,-0.8004,-0.804,-0.8015,-0.8018,-0.8051,-0.8088,-0.8093,-0.8098,-0.8159,-0.8172,-0.8183,0,0,0,0,0,0,-0.8108,-0.8081,-0.806,-0.8099,-0.8095,-0.8075,-0.8099,-0.8073,-0.8077,-0.8071,-0.8037,-0.8035,-0.807,-0.8063,-0.8035,-0.81,-0.8059,-0.8065,-0.8104,-0.8116,-0.8126,-0.8128,-0.7982,0,0,0,0,0,-0.8127,-0.8141,-0.8117,-0.8154,-0.8153,-0.8127,-0.8132,-0.8111,-0.8106,-0.8104,-0.8091,-0.8088,-0.8099,-0.8107,-0.8115,-0.8161,-0.8158,-0.8185,-0.8195,-0.8203,-0.8209,-0.8233,-0.8245,-0.8118,-0.8118,-0.8117,0,0,-0.8167,-0.8154,-0.8166,-0.8167,-0.8162,-0.8178,-0.8126,-0.8145,-0.8157,-0.8107,-0.8135,-0.8125,-0.8119,-0.8157,-0.8174,-0.8152,-0.8243,-0.8209,-0.8216,-0.8218,-0.824,-0.8252,-0.8263,-0.8121,-0.812,-0.812,0,0,-0.8249,-0.824,-0.827,-0.8265,-0.8256,-0.8238,-0.8245,-0.8229,-0.8221,-0.8247,-0.821,-0.8224,-0.8243,-0.824,-0.8241,-0.832,-0.8293,-0.8323,-0.8376,-0.84,-0.841,-0.8418,-0.8448,-0.8459,-0.8329,-0.8329,-0.833,0,-0.8301,-0.8323,-0.8289,-0.8311,-0.8313,-0.8267,-0.8297,-0.8294,-0.8289,-0.8292,-0.8268,-0.829,-0.8283,-0.832,-0.8339,-0.8341,-0.8349,-0.8326,-0.8411,-0.8419,-0.8427,-0.8455,-0.8466,-0.8333,-0.8333,-0.8333,-0.8332,0,-0.8387,-0.8403,-0.8428,-0.8423,-0.8428,-0.8454,-0.8425,-0.8433,-0.8411,-0.8395,-0.8423,-0.8412,-0.8418,-0.8424,-0.8403,-0.8459,-0.8446,-0.8416,-0.8375,-0.8444,-0.8469,-0.8479,-0.8339,-0.8338,-0.8336,-0.8335,0,0,-0.8514,-0.8488,-0.8499,-0.8496,-0.8482,-0.8494,-0.8517,-0.8521,-0.853,-0.8527,-0.8547,-0.8563,-0.8535,-0.8537,-0.8514,-0.8535,-0.8599,-0.8503,-0.8502,-0.8523,-0.8661,-0.8684,-0.8697,-0.858,-0.8581,-0.8583,-0.8662,0,-0.8593,-0.8632,-0.8602,-0.8646,-0.866,-0.8615,-0.8636,-0.863,-0.8615,-0.8625,-0.8609,-0.8622,-0.8584,-0.8584,-0.8603,-0.8588,-0.8627,-0.8581,-0.8599,-0.86,-0.8604,-0.871,-0.8735,-0.881,-0.8671,-0.8673,-0.8674,0,-0.8692,-0.8693,-0.8738,-0.872,-0.8725,-0.8744,-0.8745,-0.8755,-0.8747,-0.8735,-0.8735,-0.8707,-0.8729,-0.8686,-0.8717,-0.8686,-0.8691,-0.8685,-0.8687,-0.869,-0.8643,-0.8717,-0.8833,-0.8845,-0.8689,-0.8688,-0.8687,0,-0.8782,-0.8794,-0.8822,-0.8821,-0.8801,-0.8815,-0.8807,-0.8797,-0.8801,-0.8802,-0.8804,-0.8808,-0.8811,-0.8814,-0.8788,-0.8759,-0.8823,-0.8777,-0.8814,-0.8815,-0.8832,-0.8832,-0.8953,-0.8832,-0.8832,-0.8832,-0.8831,0,-0.8875,-0.8905,-0.8862,-0.8881,-0.8912,-0.8877,-0.891,-0.8897,-0.8888,-0.8903,-0.8864,-0.888,-0.8843,-0.8854,-0.8833,-0.8863,-0.8864,-0.8855,-0.885,-0.886,-0.8862,-0.8865,-0.886,-0.8834,-0.8834,-0.8833,-0.8833,0,-0.8982,-0.8955,-0.8983,-0.896,-0.8955,-0.898,-0.8961,-0.8977,-0.8959,-0.8978,-0.8981,-0.8953,-0.8964,-0.8937,-0.8945,-0.8931,-0.8973,-0.8958,-0.8976,-0.8972,-0.9012,-0.9009,-0.9141,-0.9157,-0.9024,-0.9025,-0.9026,0,-0.9045,-0.9067,-0.9046,-0.9052,-0.9046,-0.9058,-0.9061,-0.9027,-0.9032,-0.9024,-0.9041,-0.9048,-0.9053,-0.9073,-0.9054,-0.906,-0.9046,-0.9092,-0.9047,-0.9056,-0.9049,-0.9049,-0.9051,-0.9102,-0.9104,-0.9105,-0.9106,0,-0.9159,-0.9144,-0.915,-0.9151,-0.9156,-0.9156,-0.9153,-0.9161,-0.9123,-0.9132,-0.9142,-0.9145,-0.9152,-0.9161,-0.9162,-0.9154,-0.9125,-0.9119,-0.9129,-0.9141,-0.9151,-0.9147,-0.9003,-0.9117,-0.9116,-0.9115,-0.9115,-0.9114,-0.9247,-0.9264,-0.9252,-0.926,-0.9253,-0.9251,-0.9265,-0.9247,-0.9255,-0.9258,-0.9236,-0.9251,-0.9242,-0.924,-0.9235,-0.9247,-0.9226,-0.9239,-0.9243,-0.9247,-0.9255,-0.9147,-0.9247,-0.9246,-0.9246,-0.9246,-0.9245,0,-0.9361,-0.935,-0.9357,-0.9354,-0.936,-0.9329,-0.9323,-0.9331,-0.9345,-0.9337,-0.9342,-0.9354,-0.9362,-0.9342,-0.9347,-0.936,-0.9347,-0.9363,-0.9363,-0.9362,-0.9272,-0.9264,-0.9374,-0.9374,-0.9374,-0.9374,-0.9374,-0.9374,-0.9421,-0.9449,-0.9432,-0.9455,-0.9444,-0.9458,-0.9458,-0.9455,-0.945,-0.9464,-0.947,-0.9456,-0.9445,-0.9448,-0.9454,-0.9448,-0.9452,-0.9474,-0.9463,-0.938,-0.9368,-0.9356,-0.9349,-0.9474,-0.9474,-0.9552,-0.9553,-0.9553]}]]